Time,TemperatureF,DewpointF,PressureIn,WindDirection,WindDirectionDegrees,WindSpeedMPH,WindSpeedGustMPH,Humidity,HourlyPrecipIn,Conditions,Clouds,dailyrainin,SoftwareType,DateUTC
2013-12-07 00:00:00,39.5,37.9,29.92,West,278,0.0,0.0,94,0.00,,,0.43,Wunderground v.1.12,2013-12-07 08:00:00,
2013-12-07 00:05:00,39.6,38.0,29.92,West,278,0.0,0.0,94,0.00,,,0.43,Wunderground v.1.12,2013-12-07 08:05:00,
2013-12-07 00:10:00,39.8,38.2,29.93,West,278,0.0,2.0,94,0.00,,,0.43,Wunderground v.1.12,2013-12-07 08:10:00,
2013-12-07 00:15:00,39.6,38.0,29.93,West,278,0.0,2.0,94,0.00,,,0.43,Wunderground v.1.12,2013-12-07 08:15:00,
2013-12-07 00:25:00,39.2,37.6,29.92,West,279,0.0,4.0,94,0.00,,,0.43,Wunderground v.1.12,2013-12-07 08:25:00,
2013-12-07 00:35:00,38.5,36.9,29.92,West,279,0.0,4.0,94,0.00,,,0.43,Wunderground v.1.12,2013-12-07 08:35:00,
2013-12-07 00:40:00,38.3,36.7,29.92,West,279,0.0,3.0,94,0.00,,,0.43,Wunderground v.1.12,2013-12-07 08:40:00,
2013-12-07 00:50:00,38.5,36.9,29.92,WNW,282,1.0,1.0,94,0.00,,,0.43,Wunderground v.1.12,2013-12-07 08:50:00,
2013-12-07 00:55:00,38.6,37.0,29.92,WNW,284,0.0,6.0,94,0.00,,,0.43,Wunderground v.1.12,2013-12-07 08:55:00,
2013-12-07 01:00:00,38.5,36.9,29.92,WNW,286,0.0,6.0,94,0.00,,,0.43,Wunderground v.1.12,2013-12-07 09:00:00,
2013-12-07 01:05:00,38.3,36.7,29.92,WNW,285,0.0,6.0,94,0.00,,,0.43,Wunderground v.1.12,2013-12-07 09:05:00,
2013-12-07 01:10:00,38.2,36.6,29.93,WNW,286,0.0,3.0,94,0.00,,,0.43,Wunderground v.1.12,2013-12-07 09:10:00,
2013-12-07 01:20:00,38.0,36.4,29.93,WNW,286,0.0,3.0,94,0.00,,,0.43,Wunderground v.1.12,2013-12-07 09:20:00,
2013-12-07 01:25:00,37.9,36.3,29.93,WNW,286,0.0,3.0,94,0.00,,,0.43,Wunderground v.1.12,2013-12-07 09:25:00,
2013-12-07 01:35:00,37.8,36.2,29.93,WNW,292,0.0,3.0,94,0.00,,,0.43,Wunderground v.1.12,2013-12-07 09:35:00,
2013-12-07 01:45:00,37.3,35.7,29.93,WNW,292,0.0,5.0,94,0.00,,,0.43,Wunderground v.1.12,2013-12-07 09:45:00,
2013-12-07 01:50:00,37.2,35.6,29.93,WNW,292,0.0,5.0,94,0.00,,,0.43,Wunderground v.1.12,2013-12-07 09:50:00,
2013-12-07 02:00:00,37.0,35.4,29.94,WNW,292,0.0,0.0,94,0.00,,,0.43,Wunderground v.1.12,2013-12-07 10:00:00,
2013-12-07 02:05:00,36.9,35.3,29.94,WNW,292,0.0,0.0,94,0.00,,,0.43,Wunderground v.1.12,2013-12-07 10:05:00,
2013-12-07 02:10:00,36.6,35.0,29.95,WNW,292,0.0,1.0,94,0.00,,,0.43,Wunderground v.1.12,2013-12-07 10:10:00,
2013-12-07 02:15:00,36.5,34.9,29.95,WNW,292,0.0,1.0,94,0.00,,,0.43,Wunderground v.1.12,2013-12-07 10:15:00,
2013-12-07 02:25:00,36.2,34.6,29.95,WNW,292,0.0,2.0,94,0.00,,,0.43,Wunderground v.1.12,2013-12-07 10:25:00,
2013-12-07 02:35:00,35.8,34.2,29.95,WNW,292,0.0,2.0,94,0.00,,,0.43,Wunderground v.1.12,2013-12-07 10:35:00,
2013-12-07 02:45:00,35.8,34.2,29.95,WNW,292,0.0,2.0,94,0.00,,,0.43,Wunderground v.1.12,2013-12-07 10:45:00,
2013-12-07 02:55:00,36.0,34.4,29.96,WNW,294,1.0,1.0,94,0.00,,,0.43,Wunderground v.1.12,2013-12-07 10:55:00,
2013-12-07 03:05:00,36.0,34.4,29.96,WNW,296,0.0,4.0,94,0.00,,,0.43,Wunderground v.1.12,2013-12-07 11:05:00,
2013-12-07 03:10:00,35.9,34.1,29.96,WNW,291,0.0,4.0,93,0.00,,,0.00,Wunderground v.1.12,2013-12-07 11:10:00,
2013-12-07 03:20:00,35.9,34.1,29.96,WNW,298,1.0,4.0,93,0.00,,,0.00,Wunderground v.1.12,2013-12-07 11:20:00,
2013-12-07 03:25:00,36.0,34.2,29.97,NW,325,1.0,5.0,93,0.00,,,0.00,Wunderground v.1.12,2013-12-07 11:25:00,
2013-12-07 03:35:00,36.0,34.2,29.97,NW,321,0.0,5.0,93,0.00,,,0.00,Wunderground v.1.12,2013-12-07 11:35:00,
2013-12-07 03:45:00,35.8,33.7,29.97,NW,319,0.0,4.0,92,0.00,,,0.00,Wunderground v.1.12,2013-12-07 11:45:00,
2013-12-07 03:55:00,35.6,33.5,29.98,NW,315,1.0,1.0,92,0.00,,,0.00,Wunderground v.1.12,2013-12-07 11:55:00,
2013-12-07 04:05:00,35.3,32.9,29.98,NW,313,1.0,1.0,91,0.00,,,0.00,Wunderground v.1.12,2013-12-07 12:05:00,
2013-12-07 04:10:00,35.2,32.8,29.98,NW,313,0.0,3.0,91,0.00,,,0.00,Wunderground v.1.12,2013-12-07 12:10:00,
2013-12-07 04:20:00,35.5,33.1,29.98,NW,312,0.0,3.0,91,0.00,,,0.00,Wunderground v.1.12,2013-12-07 12:20:00,
2013-12-07 04:30:00,35.3,32.9,29.98,NW,311,1.0,1.0,91,0.00,,,0.00,Wunderground v.1.12,2013-12-07 12:30:00,
2013-12-07 04:35:00,35.3,32.9,29.98,NW,309,1.0,1.0,91,0.00,,,0.00,Wunderground v.1.12,2013-12-07 12:35:00,
2013-12-07 04:40:00,35.3,32.7,29.98,NW,309,0.0,4.0,90,0.00,,,0.00,Wunderground v.1.12,2013-12-07 12:40:00,
2013-12-07 04:45:00,35.3,32.7,29.98,NW,309,0.0,4.0,90,0.00,,,0.00,Wunderground v.1.12,2013-12-07 12:45:00,
2013-12-07 04:55:00,35.3,32.9,29.99,NW,309,0.0,2.0,91,0.00,,,0.00,Wunderground v.1.12,2013-12-07 12:55:00,
2013-12-07 05:00:00,35.5,33.1,29.99,NW,309,0.0,2.0,91,0.00,,,0.00,Wunderground v.1.12,2013-12-07 13:00:00,
2013-12-07 05:05:00,35.6,33.2,29.99,NW,309,0.0,2.0,91,0.00,,,0.00,Wunderground v.1.12,2013-12-07 13:05:00,
2013-12-07 05:10:00,35.6,33.2,29.99,NW,309,0.0,0.0,91,0.00,,,0.00,Wunderground v.1.12,2013-12-07 13:10:00,
2013-12-07 05:20:00,35.8,33.4,29.99,NW,309,0.0,0.0,91,0.00,,,0.00,Wunderground v.1.12,2013-12-07 13:20:00,
2013-12-07 05:30:00,35.5,33.1,30.00,NW,309,0.0,0.0,91,0.00,,,0.00,Wunderground v.1.12,2013-12-07 13:30:00,
2013-12-07 05:35:00,35.5,32.9,30.00,NW,309,0.0,0.0,90,0.00,,,0.00,Wunderground v.1.12,2013-12-07 13:35:00,
2013-12-07 05:40:00,35.3,32.7,30.00,NW,309,0.0,1.0,90,0.00,,,0.00,Wunderground v.1.12,2013-12-07 13:40:00,
2013-12-07 05:45:00,34.9,32.3,30.00,NW,309,0.0,1.0,90,0.00,,,0.00,Wunderground v.1.12,2013-12-07 13:45:00,
2013-12-07 05:50:00,34.6,32.0,30.00,NW,309,0.0,1.0,90,0.00,,,0.00,Wunderground v.1.12,2013-12-07 13:50:00,
2013-12-07 05:55:00,34.4,31.8,30.00,NW,309,0.0,0.0,90,0.00,,,0.00,Wunderground v.1.12,2013-12-07 13:55:00,
2013-12-07 06:00:00,34.3,31.7,30.00,NW,309,0.0,0.0,90,0.00,,,0.00,Wunderground v.1.12,2013-12-07 14:00:00,
2013-12-07 06:05:00,34.3,31.7,30.00,NW,309,0.0,0.0,90,0.00,,,0.00,Wunderground v.1.12,2013-12-07 14:05:00,
2013-12-07 06:10:00,34.4,31.8,30.01,NW,309,0.0,0.0,90,0.00,,,0.00,Wunderground v.1.12,2013-12-07 14:10:00,
2013-12-07 06:20:00,34.6,32.0,30.01,NW,309,0.0,0.0,90,0.00,,,0.00,Wunderground v.1.12,2013-12-07 14:20:00,
2013-12-07 06:25:00,34.7,32.1,30.01,NW,309,0.0,3.0,90,0.00,,,0.00,Wunderground v.1.12,2013-12-07 14:25:00,
2013-12-07 06:35:00,34.6,32.0,30.01,NW,308,0.0,3.0,90,0.00,,,0.00,Wunderground v.1.12,2013-12-07 14:35:00,
2013-12-07 06:40:00,34.7,32.1,30.01,NW,315,0.0,2.0,90,0.00,,,0.00,Wunderground v.1.12,2013-12-07 14:40:00,
2013-12-07 06:45:00,34.9,32.3,30.01,NW,314,0.0,2.0,90,0.00,,,0.00,Wunderground v.1.12,2013-12-07 14:45:00,
2013-12-07 06:50:00,34.9,32.0,30.01,NW,314,0.0,2.0,89,0.00,,,0.00,Wunderground v.1.12,2013-12-07 14:50:00,
2013-12-07 06:55:00,34.1,30.9,30.02,NW,314,0.0,3.0,88,0.00,,,0.00,Wunderground v.1.12,2013-12-07 14:55:00,
2013-12-07 07:00:00,33.7,30.8,30.02,NW,314,0.0,3.0,89,0.00,,,0.00,Wunderground v.1.12,2013-12-07 15:00:00,
2013-12-07 07:05:00,33.5,30.6,30.02,NW,314,0.0,3.0,89,0.00,,,0.00,Wunderground v.1.12,2013-12-07 15:05:00,
2013-12-07 07:10:00,33.5,30.9,30.03,NW,314,0.0,0.0,90,0.00,,,0.00,Wunderground v.1.12,2013-12-07 15:10:00,
2013-12-07 07:20:00,33.5,30.9,30.03,NW,314,0.0,0.0,90,0.00,,,0.00,Wunderground v.1.12,2013-12-07 15:20:00,
2013-12-07 07:25:00,33.4,30.8,30.04,NW,314,0.0,0.0,90,0.00,,,0.00,Wunderground v.1.12,2013-12-07 15:25:00,
2013-12-07 07:35:00,33.2,30.6,30.04,NW,314,0.0,0.0,90,0.00,,,0.00,Wunderground v.1.12,2013-12-07 15:35:00,
2013-12-07 07:40:00,32.9,30.3,30.05,NW,314,0.0,0.0,90,0.00,,,0.01,Wunderground v.1.12,2013-12-07 15:40:00,
2013-12-07 07:45:00,32.9,30.3,30.05,NW,314,0.0,0.0,90,0.00,,,0.01,Wunderground v.1.12,2013-12-07 15:45:00,
2013-12-07 07:55:00,33.4,31.1,30.06,NW,314,0.0,0.0,91,0.00,,,0.01,Wunderground v.1.12,2013-12-07 15:55:00,
2013-12-07 08:00:00,33.4,31.1,30.06,NW,314,0.0,0.0,91,0.00,,,0.01,Wunderground v.1.12,2013-12-07 16:00:00,
2013-12-07 08:10:00,34.4,32.3,30.06,NW,314,0.0,0.0,92,0.00,,,0.01,Wunderground v.1.12,2013-12-07 16:10:00,
2013-12-07 08:15:00,34.9,32.5,30.06,NW,314,0.0,0.0,91,0.00,,,0.01,Wunderground v.1.12,2013-12-07 16:15:00,
2013-12-07 08:25:00,35.0,32.4,30.07,NW,314,0.0,0.0,90,0.00,,,0.01,Wunderground v.1.12,2013-12-07 16:25:00,
2013-12-07 08:35:00,35.8,33.2,30.07,NW,314,0.0,0.0,90,0.00,,,0.01,Wunderground v.1.12,2013-12-07 16:35:00,
2013-12-07 08:40:00,36.5,33.6,30.08,NW,313,0.0,2.0,89,0.00,,,0.01,Wunderground v.1.12,2013-12-07 16:40:00,
2013-12-07 08:50:00,36.8,33.0,30.08,WNW,300,1.0,1.0,86,0.00,,,0.01,Wunderground v.1.12,2013-12-07 16:50:00,
2013-12-07 08:55:00,37.0,32.9,30.09,WNW,300,1.0,6.0,85,0.00,,,0.01,Wunderground v.1.12,2013-12-07 16:55:00,
2013-12-07 09:00:00,37.3,32.9,30.09,WNW,296,1.0,6.0,84,0.00,,,0.01,Wunderground v.1.12,2013-12-07 17:00:00,
2013-12-07 09:05:00,37.6,32.9,30.09,WNW,292,2.0,6.0,83,0.00,,,0.01,Wunderground v.1.12,2013-12-07 17:05:00,
2013-12-07 09:15:00,38.3,33.0,30.10,WNW,302,2.0,6.0,81,0.00,,,0.01,Wunderground v.1.12,2013-12-07 17:15:00,
2013-12-07 09:25:00,38.9,32.6,30.10,WNW,289,2.0,9.0,78,0.00,,,0.01,Wunderground v.1.12,2013-12-07 17:25:00,
2013-12-07 09:35:00,39.5,32.6,30.10,NW,311,2.0,10.0,76,0.00,,,0.01,Wunderground v.1.12,2013-12-07 17:35:00,
2013-12-07 09:40:00,39.5,31.6,30.11,West,267,3.0,10.0,73,0.00,,,0.01,Wunderground v.1.12,2013-12-07 17:40:00,
2013-12-07 09:50:00,39.6,30.3,30.11,NW,315,4.0,4.0,69,0.00,,,0.01,Wunderground v.1.12,2013-12-07 17:50:00,
2013-12-07 09:55:00,39.8,30.5,30.12,NW,306,4.0,12.0,69,0.00,,,0.01,Wunderground v.1.12,2013-12-07 17:55:00,
2013-12-07 10:05:00,40.2,29.7,30.12,WNW,292,5.0,5.0,66,0.00,,,0.01,Wunderground v.1.12,2013-12-07 18:05:00,
2013-12-07 10:10:00,40.8,29.9,30.12,WNW,294,4.0,4.0,65,0.00,,,0.01,Wunderground v.1.12,2013-12-07 18:10:00,
2013-12-07 10:15:00,41.1,29.8,30.12,WNW,293,4.0,4.0,64,0.00,,,0.01,Wunderground v.1.12,2013-12-07 18:15:00,
2013-12-07 10:25:00,41.3,28.0,30.12,WNW,296,5.0,16.0,59,0.00,,,0.01,Wunderground v.1.12,2013-12-07 18:25:00,
2013-12-07 10:35:00,41.5,27.0,30.12,WNW,286,7.0,7.0,56,0.00,,,0.01,Wunderground v.1.12,2013-12-07 18:35:00,
2013-12-07 10:40:00,41.8,26.4,30.12,WNW,290,7.0,7.0,54,0.00,,,0.01,Wunderground v.1.12,2013-12-07 18:40:00,
2013-12-07 10:50:00,42.2,26.7,30.12,West,281,7.0,7.0,54,0.00,,,0.01,Wunderground v.1.12,2013-12-07 18:50:00,
2013-12-07 10:55:00,42.3,25.4,30.12,West,281,6.0,6.0,51,0.00,,,0.01,Wunderground v.1.12,2013-12-07 18:55:00,
2013-12-07 11:00:00,42.6,26.2,30.12,WNW,299,6.0,21.0,52,0.00,,,0.01,Wunderground v.1.12,2013-12-07 19:00:00,
2013-12-07 11:05:00,42.6,24.3,30.12,West,269,7.0,7.0,48,0.00,,,0.01,Wunderground v.1.12,2013-12-07 19:05:00,
2013-12-07 11:15:00,42.9,24.5,30.12,West,280,5.0,5.0,48,0.00,,,0.01,Wunderground v.1.12,2013-12-07 19:15:00,
2013-12-07 11:25:00,43.2,25.3,30.12,North,360,4.0,4.0,49,0.00,,,0.01,Wunderground v.1.12,2013-12-07 19:25:00,
2013-12-07 11:35:00,43.8,25.4,30.12,WNW,297,5.0,5.0,48,0.00,,,0.01,Wunderground v.1.12,2013-12-07 19:35:00,
2013-12-07 11:40:00,44.3,25.3,30.11,NW,317,4.0,4.0,47,0.00,,,0.01,Wunderground v.1.12,2013-12-07 19:40:00,
2013-12-07 11:45:00,44.3,24.8,30.11,NW,308,4.0,4.0,46,0.00,,,0.01,Wunderground v.1.12,2013-12-07 19:45:00,
2013-12-07 11:50:00,44.2,24.2,30.11,WNW,302,5.0,5.0,45,0.00,,,0.01,Wunderground v.1.12,2013-12-07 19:50:00,
2013-12-07 11:55:00,44.3,24.8,30.10,WNW,296,4.0,4.0,46,0.00,,,0.01,Wunderground v.1.12,2013-12-07 19:55:00,
2013-12-07 12:05:00,44.2,23.1,30.10,West,277,4.0,4.0,43,0.00,,,0.01,Wunderground v.1.12,2013-12-07 20:05:00,
2013-12-07 12:15:00,44.5,25.0,30.10,West,270,5.0,5.0,46,0.00,,,0.01,Wunderground v.1.12,2013-12-07 20:15:00,
2013-12-07 12:25:00,45.2,25.6,30.10,WNW,294,4.0,4.0,46,0.00,,,0.01,Wunderground v.1.12,2013-12-07 20:25:00,
2013-12-07 12:30:00,44.8,23.6,30.10,WNW,299,4.0,4.0,43,0.00,,,0.01,Wunderground v.1.12,2013-12-07 20:30:00,
2013-12-07 12:35:00,45.2,26.1,30.10,NW,315,4.0,4.0,47,0.00,,,0.01,Wunderground v.1.12,2013-12-07 20:35:00,
2013-12-07 12:40:00,45.2,25.1,30.10,NW,321,4.0,4.0,45,0.00,,,0.01,Wunderground v.1.12,2013-12-07 20:40:00,
2013-12-07 12:45:00,45.7,25.5,30.10,West,271,4.0,15.0,45,0.00,,,0.01,Wunderground v.1.12,2013-12-07 20:45:00,
2013-12-07 12:50:00,45.1,23.9,30.10,WNW,292,5.0,5.0,43,0.00,,,0.01,Wunderground v.1.12,2013-12-07 20:50:00,
2013-12-07 12:55:00,44.9,24.3,30.10,ENE,74,5.0,5.0,44,0.00,,,0.01,Wunderground v.1.12,2013-12-07 20:55:00,
2013-12-07 13:05:00,45.1,23.9,30.10,NNW,329,4.0,4.0,43,0.00,,,0.01,Wunderground v.1.12,2013-12-07 21:05:00,
2013-12-07 13:15:00,44.9,23.7,30.10,NW,319,3.0,3.0,43,0.00,,,0.01,Wunderground v.1.12,2013-12-07 21:15:00,
2013-12-07 13:25:00,44.9,25.3,30.10,NW,325,3.0,3.0,46,0.00,,,0.01,Wunderground v.1.12,2013-12-07 21:25:00,
2013-12-07 13:30:00,44.3,24.3,30.10,WNW,298,2.0,2.0,45,0.00,,,0.01,Wunderground v.1.12,2013-12-07 21:30:00,
2013-12-07 13:35:00,44.2,25.2,30.10,NW,315,2.0,2.0,47,0.00,,,0.01,Wunderground v.1.12,2013-12-07 21:35:00,
2013-12-07 13:45:00,44.9,26.9,30.11,NNW,338,2.0,2.0,49,0.00,,,0.01,Wunderground v.1.12,2013-12-07 21:45:00,
2013-12-07 13:50:00,44.8,25.3,30.11,NW,304,1.0,10.0,46,0.00,,,0.01,Wunderground v.1.12,2013-12-07 21:50:00,
2013-12-07 13:55:00,43.9,24.4,30.11,WNW,282,2.0,7.0,46,0.00,,,0.01,Wunderground v.1.12,2013-12-07 21:55:00,
2013-12-07 14:00:00,43.3,25.4,30.11,NW,319,2.0,2.0,49,0.00,,,0.01,Wunderground v.1.12,2013-12-07 22:00:00,
2013-12-07 14:10:00,43.9,24.4,30.11,North,360,0.0,9.0,46,0.00,,,0.01,Wunderground v.1.12,2013-12-07 22:10:00,
2013-12-07 14:20:00,43.3,24.9,30.11,NW,308,1.0,1.0,48,0.00,,,0.01,Wunderground v.1.12,2013-12-07 22:20:00,
2013-12-07 14:25:00,43.8,24.3,30.11,NW,311,2.0,9.0,46,0.00,,,0.01,Wunderground v.1.12,2013-12-07 22:25:00,
2013-12-07 14:35:00,44.6,25.6,30.11,NW,318,0.0,9.0,47,0.00,,,0.01,Wunderground v.1.12,2013-12-07 22:35:00,
2013-12-07 14:40:00,45.5,25.9,30.11,WSW,246,1.0,13.0,46,0.00,,,0.01,Wunderground v.1.12,2013-12-07 22:40:00,
2013-12-07 14:45:00,45.8,24.5,30.11,West,275,3.0,3.0,43,0.00,,,0.01,Wunderground v.1.12,2013-12-07 22:45:00,
2013-12-07 14:50:00,46.2,27.1,30.11,West,279,4.0,13.0,47,0.00,,,0.01,Wunderground v.1.12,2013-12-07 22:50:00,
2013-12-07 14:55:00,46.1,24.8,30.12,WNW,284,4.0,15.0,43,0.00,,,0.01,Wunderground v.1.12,2013-12-07 22:55:00,
2013-12-07 15:00:00,45.2,24.0,30.12,West,275,5.0,15.0,43,0.00,,,0.01,Wunderground v.1.12,2013-12-07 23:00:00,
2013-12-07 15:05:00,45.2,24.0,30.12,WNW,303,5.0,5.0,43,0.00,,,0.01,Wunderground v.1.12,2013-12-07 23:05:00,
2013-12-07 15:15:00,43.9,23.4,30.13,WNW,298,5.0,5.0,44,0.00,,,0.01,Wunderground v.1.12,2013-12-07 23:15:00,
2013-12-07 15:20:00,44.5,22.2,30.13,WNW,294,5.0,5.0,41,0.00,,,0.01,Wunderground v.1.12,2013-12-07 23:20:00,
2013-12-07 15:30:00,44.9,23.2,30.14,WNW,288,4.0,16.0,42,0.00,,,0.01,Wunderground v.1.12,2013-12-07 23:30:00,
2013-12-07 15:35:00,44.9,23.2,30.14,WNW,283,4.0,4.0,42,0.00,,,0.01,Wunderground v.1.12,2013-12-07 23:35:00,
2013-12-07 15:40:00,45.2,22.9,30.15,West,280,4.0,16.0,41,0.00,,,0.01,Wunderground v.1.12,2013-12-07 23:40:00,
2013-12-07 15:45:00,44.8,22.5,30.15,West,268,4.0,16.0,41,0.00,,,0.01,Wunderground v.1.12,2013-12-07 23:45:00,
2013-12-07 15:50:00,44.5,22.2,30.15,WNW,288,5.0,16.0,41,0.00,,,0.01,Wunderground v.1.12,2013-12-07 23:50:00,
2013-12-07 16:00:00,44.2,22.0,30.15,WNW,286,4.0,4.0,41,0.00,,,0.01,Wunderground v.1.12,2013-12-08 00:00:00,
2013-12-07 16:10:00,43.3,22.3,30.15,West,273,5.0,13.0,43,0.00,,,0.01,Wunderground v.1.12,2013-12-08 00:10:00,
2013-12-07 16:20:00,42.1,22.3,30.15,WNW,286,4.0,13.0,45,0.00,,,0.01,Wunderground v.1.12,2013-12-08 00:20:00,
2013-12-07 16:30:00,41.1,21.9,30.16,West,277,3.0,14.0,46,0.00,,,0.01,Wunderground v.1.12,2013-12-08 00:30:00,
2013-12-07 16:40:00,40.3,22.1,30.17,WNW,294,3.0,3.0,48,0.00,,,0.01,Wunderground v.1.12,2013-12-08 00:40:00,
2013-12-07 16:50:00,39.8,22.2,30.17,WNW,285,2.0,9.0,49,0.00,,,0.01,Wunderground v.1.12,2013-12-08 00:50:00,
2013-12-07 16:55:00,39.5,22.4,30.17,WNW,291,2.0,2.0,50,0.00,,,0.01,Wunderground v.1.12,2013-12-08 00:55:00,
2013-12-07 17:05:00,38.8,22.2,30.17,WNW,288,1.0,9.0,51,0.00,,,0.01,Wunderground v.1.12,2013-12-08 01:05:00,
2013-12-07 17:10:00,38.8,22.7,30.18,WNW,283,1.0,6.0,52,0.00,,,0.01,Wunderground v.1.12,2013-12-08 01:10:00,
2013-12-07 17:15:00,38.6,22.5,30.18,NW,306,1.0,6.0,52,0.00,,,0.01,Wunderground v.1.12,2013-12-08 01:15:00,
2013-12-07 17:25:00,38.3,23.1,30.18,NW,312,1.0,5.0,54,0.00,,,0.01,Wunderground v.1.12,2013-12-08 01:25:00,
2013-12-07 17:35:00,37.9,23.2,30.18,WNW,290,2.0,2.0,55,0.00,,,0.01,Wunderground v.1.12,2013-12-08 01:35:00,
2013-12-07 17:40:00,37.9,23.2,30.17,WNW,294,2.0,2.0,55,0.00,,,0.01,Wunderground v.1.12,2013-12-08 01:40:00,
2013-12-07 17:50:00,37.5,23.6,30.17,WNW,294,1.0,6.0,57,0.00,,,0.01,Wunderground v.1.12,2013-12-08 01:50:00,
2013-12-07 18:00:00,36.9,23.5,30.18,WNW,293,2.0,6.0,58,0.00,,,0.01,Wunderground v.1.12,2013-12-08 02:00:00,
2013-12-07 18:10:00,36.3,23.7,30.18,WNW,292,1.0,1.0,60,0.00,,,0.01,Wunderground v.1.12,2013-12-08 02:10:00,
2013-12-07 18:20:00,35.5,23.8,30.18,WNW,292,0.0,5.0,62,0.00,,,0.01,Wunderground v.1.12,2013-12-08 02:20:00,
2013-12-07 18:25:00,35.3,23.6,30.18,WNW,292,0.0,4.0,62,0.00,,,0.01,Wunderground v.1.12,2013-12-08 02:25:00,
2013-12-07 18:30:00,35.3,23.6,30.18,WNW,291,0.0,4.0,62,0.00,,,0.01,Wunderground v.1.12,2013-12-08 02:30:00,
2013-12-07 18:35:00,35.3,23.6,30.18,WNW,290,1.0,4.0,62,0.00,,,0.01,Wunderground v.1.12,2013-12-08 02:35:00,
2013-12-07 18:40:00,35.2,23.9,30.19,WNW,298,1.0,4.0,63,0.00,,,0.01,Wunderground v.1.12,2013-12-08 02:40:00,
2013-12-07 18:45:00,35.0,23.7,30.19,WNW,296,1.0,4.0,63,0.00,,,0.01,Wunderground v.1.12,2013-12-08 02:45:00,
2013-12-07 18:50:00,34.6,23.7,30.19,WNW,296,1.0,1.0,64,0.00,,,0.01,Wunderground v.1.12,2013-12-08 02:50:00,
2013-12-07 19:00:00,34.1,23.6,30.20,WNW,296,0.0,5.0,65,0.00,,,0.01,Wunderground v.1.12,2013-12-08 03:00:00,
2013-12-07 19:10:00,34.1,23.6,30.20,WNW,292,1.0,4.0,65,0.00,,,0.01,Wunderground v.1.12,2013-12-08 03:10:00,
2013-12-07 19:15:00,34.0,23.5,30.20,WNW,290,1.0,1.0,65,0.00,,,0.01,Wunderground v.1.12,2013-12-08 03:15:00,
2013-12-07 19:25:00,33.7,23.5,30.20,WNW,289,1.0,4.0,66,0.00,,,0.01,Wunderground v.1.12,2013-12-08 03:25:00,
2013-12-07 19:35:00,33.2,23.4,30.20,WNW,296,1.0,4.0,67,0.00,,,0.01,Wunderground v.1.12,2013-12-08 03:35:00,
2013-12-07 19:40:00,32.9,23.5,30.20,WNW,294,1.0,6.0,68,0.00,,,0.01,Wunderground v.1.12,2013-12-08 03:40:00,
2013-12-07 19:50:00,32.8,23.7,30.20,WNW,287,2.0,2.0,69,0.00,,,0.01,Wunderground v.1.12,2013-12-08 03:50:00,
2013-12-07 19:55:00,32.7,23.6,30.21,WNW,286,2.0,6.0,69,0.00,,,0.01,Wunderground v.1.12,2013-12-08 03:55:00,
2013-12-07 20:05:00,32.4,23.7,30.21,WNW,285,1.0,1.0,70,0.00,,,0.01,Wunderground v.1.12,2013-12-08 04:05:00,
2013-12-07 20:15:00,32.4,23.4,30.22,WNW,285,0.0,6.0,69,0.00,,,0.01,Wunderground v.1.12,2013-12-08 04:15:00,
2013-12-07 20:20:00,32.4,23.4,30.22,WNW,285,0.0,6.0,69,0.00,,,0.01,Wunderground v.1.12,2013-12-08 04:20:00,
2013-12-07 20:25:00,32.2,23.5,30.22,WNW,285,0.0,3.0,70,0.00,,,0.01,Wunderground v.1.12,2013-12-08 04:25:00,
2013-12-07 20:30:00,32.1,23.4,30.22,WNW,285,0.0,3.0,70,0.00,,,0.01,Wunderground v.1.12,2013-12-08 04:30:00,
2013-12-07 20:35:00,32.2,23.5,30.22,WNW,285,0.0,3.0,70,0.00,,,0.01,Wunderground v.1.12,2013-12-08 04:35:00,
2013-12-07 20:40:00,32.5,23.8,30.21,WNW,286,0.0,0.0,70,0.00,,,0.01,Wunderground v.1.12,2013-12-08 04:40:00,
2013-12-07 20:45:00,32.7,23.6,30.21,WNW,286,0.0,0.0,69,0.00,,,0.01,Wunderground v.1.12,2013-12-08 04:45:00,
2013-12-07 20:50:00,32.8,23.7,30.21,WNW,286,0.0,0.0,69,0.00,,,0.01,Wunderground v.1.12,2013-12-08 04:50:00,
2013-12-07 20:55:00,32.7,23.3,30.21,WNW,286,0.0,0.0,68,0.00,,,0.01,Wunderground v.1.12,2013-12-08 04:55:00,
2013-12-07 21:05:00,32.5,23.5,30.21,WNW,285,0.0,0.0,69,0.00,,,0.01,Wunderground v.1.12,2013-12-08 05:05:00,
2013-12-07 21:10:00,32.5,23.5,30.22,WNW,285,0.0,2.0,69,0.00,,,0.01,Wunderground v.1.12,2013-12-08 05:10:00,
2013-12-07 21:20:00,31.9,23.2,30.22,WNW,285,0.0,2.0,70,0.00,,,0.01,Wunderground v.1.12,2013-12-08 05:20:00,
2013-12-07 21:25:00,31.8,23.5,30.23,WNW,285,0.0,3.0,71,0.00,,,0.01,Wunderground v.1.12,2013-12-08 05:25:00,
2013-12-07 21:30:00,31.8,23.8,30.23,WNW,288,1.0,1.0,72,0.00,,,0.01,Wunderground v.1.12,2013-12-08 05:30:00,
2013-12-07 21:35:00,31.6,23.6,30.23,WNW,288,0.0,3.0,72,0.00,,,0.01,Wunderground v.1.12,2013-12-08 05:35:00,
2013-12-07 21:40:00,31.8,24.1,30.23,WNW,288,0.0,3.0,73,0.00,,,0.01,Wunderground v.1.12,2013-12-08 05:40:00,
2013-12-07 21:45:00,31.3,23.6,30.23,WNW,288,0.0,3.0,73,0.00,,,0.01,Wunderground v.1.12,2013-12-08 05:45:00,
2013-12-07 21:50:00,30.9,23.6,30.23,WNW,288,0.0,3.0,74,0.00,,,0.01,Wunderground v.1.12,2013-12-08 05:50:00,
2013-12-07 21:55:00,30.4,23.4,30.24,WNW,288,0.0,0.0,75,0.00,,,0.01,Wunderground v.1.12,2013-12-08 05:55:00,
2013-12-07 22:05:00,29.7,23.7,30.24,WNW,288,0.0,0.0,78,0.00,,,0.01,Wunderground v.1.12,2013-12-08 06:05:00,
2013-12-07 22:15:00,29.4,23.7,30.25,WNW,288,0.0,0.0,79,0.00,,,0.01,Wunderground v.1.12,2013-12-08 06:15:00,
2013-12-07 22:25:00,29.1,23.4,30.25,WNW,288,0.0,0.0,79,0.00,,,0.01,Wunderground v.1.12,2013-12-08 06:25:00,
2013-12-07 22:35:00,29.0,23.9,30.25,WNW,288,0.0,0.0,81,0.00,,,0.01,Wunderground v.1.12,2013-12-08 06:35:00,
2013-12-07 22:40:00,29.1,24.0,30.25,WNW,288,0.0,0.0,81,0.00,,,0.01,Wunderground v.1.12,2013-12-08 06:40:00,
2013-12-07 22:45:00,29.3,23.9,30.25,WNW,288,0.0,0.0,80,0.00,,,0.01,Wunderground v.1.12,2013-12-08 06:45:00,
2013-12-07 22:55:00,29.4,23.7,30.26,WNW,288,0.0,0.0,79,0.00,,,0.01,Wunderground v.1.12,2013-12-08 06:55:00,
2013-12-07 23:05:00,29.4,24.0,30.26,WNW,288,0.0,0.0,80,0.00,,,0.01,Wunderground v.1.12,2013-12-08 07:05:00,
2013-12-07 23:15:00,29.4,24.0,30.27,WNW,288,0.0,0.0,80,0.00,,,0.01,Wunderground v.1.12,2013-12-08 07:15:00,
2013-12-07 23:20:00,29.5,24.1,30.27,WNW,288,0.0,0.0,80,0.00,,,0.01,Wunderground v.1.12,2013-12-08 07:20:00,
2013-12-07 23:30:00,28.8,23.4,30.27,WNW,288,0.0,0.0,80,0.00,,,0.01,Wunderground v.1.12,2013-12-08 07:30:00,
2013-12-07 23:35:00,28.8,23.7,30.27,WNW,288,0.0,0.0,81,0.00,,,0.01,Wunderground v.1.12,2013-12-08 07:35:00,
2013-12-07 23:40:00,29.0,23.9,30.28,WNW,288,0.0,0.0,81,0.00,,,0.01,Wunderground v.1.12,2013-12-08 07:40:00,
2013-12-07 23:45:00,29.0,23.9,30.28,WNW,288,0.0,0.0,81,0.00,,,0.01,Wunderground v.1.12,2013-12-08 07:45:00,
2013-12-07 23:55:00,28.8,23.7,30.27,WNW,288,0.0,0.0,81,0.00,,,0.01,Wunderground v.1.12,2013-12-08 07:55:00,